Regional Weather Roundup
Issued by NWS State College, PA

Home | Current Version | Previous Version | Text Only | Print | Product List | Glossary On
Versions: 1 2 3 4 5 6 7 8 9 10 11 12 13 14 15 16 17 18 19 20 21 22 23 24 25 26 27 28 29 30 31 32 33 34 35 36 37 38 39 40 41 42 43 44 45 46 47 48 49 50
000
ASUS41 KCTP 271010
RWRCTP

REGIONAL WEATHER ROUNDUP
NATIONAL WEATHER SERVICE STATE COLLEGE PA
600 AM EDT FRI MAY 27 2016

Note: "fair" indicates few or no clouds below 12,000 feet with no
significant weather and/or obstructions to visibility.

* = STATION THAT DOES NOT REPORT PRECIPITATION /E.G. RAIN...SNOW...ETC/
    THUNDER OR FOG.

PAZ002>004-007>009-013>016-020>023-029>032-271100-
WESTERN PENNSYLVANIA

CITY           SKY/WX    TMP DP  RH WIND       PRES   REMARKS
ERIE           CLOUDY    70  65  84 S8        29.99R
MEADVILLE      CLOUDY    64  64 100 S6        30.04R
FRANKLIN*      CLOUDY    63  61  94 S6        30.08R
NEW CASTLE     FAIR      66  64  93 S3        30.05R
BEAVER COUNTY  NOT AVBL
BUTLER*        CLEAR    N/A N/A N/A S5        30.08S
PITTSBURGH INT MOCLDY    66  62  87 S3        30.05S
PITTSBURGH     CLEAR     66  62  87 S7        30.06R
INDIANA*       PTCLDY    64  64 100 W5        30.11S
LATROBE        PTCLDY    66  66 100 SW6       30.08S
WASHINGTON CO*   N/A     61  59  94 SW3       30.08R VSB 1/2
$$

PAZ004>006-010>012-017>019-024>028-033>037-041-042-045-046-049>053-271100-
CENTRAL PENNSYLVANIA

CITY           SKY/WX    TMP DP  RH WIND       PRES   REMARKS
BRADFORD       MOCLDY    60  58  92 CALM      30.08R FOG
DUBOIS         PTCLDY    63  61  93 S5        30.07S FOG
CLEARFIELD     FOG       59  57  93 CALM      30.08S VSB 1/4
JOHNSTOWN      MOCLDY    66  59  78 SW6       30.11R
ALTOONA        PTCLDY    63  61  93 CALM      30.10R FOG
STATE COLLEGE  CLEAR     64  63  94 CALM      30.08R
WILLIAMSPORT   CLOUDY    65  60  84 N3        30.04R
SELINSGROVE    CLOUDY    67  64  90 CALM      30.06R
FT INDIANTOWN  CLOUDY    66  66 100 CALM      30.06R
CAPITAL CITY   CLOUDY    70  64  81 CALM      30.05R
HARRISBURG     CLOUDY    69  64  84 VRB5      30.04R HAZE
YORK           CLEAR     63  61  93 W3        30.06R FOG
$$

PAZ038>040-043-044-047-048-054-055-060>062-067>071-271100-
EASTERN PENNSYLVANIA

CITY           SKY/WX    TMP DP  RH WIND       PRES   REMARKS
SCRANTON       CLOUDY    70  62  76 CALM      30.05S
MOUNT POCONO   CLOUDY    60  60 100 CALM      30.10S
ALLENTOWN      CLOUDY    67  64  90 CALM      30.06R FOG
QUAKERTOWN*    CLOUDY    68  66  94 CALM      30.07S
READING        CLEAR     68  64  87 CALM      30.04S
LANCASTER      CLEAR     66  63  90 E3        30.05S FOG
COATESVILLE    SUNNY     66  63  88 CALM      30.08S
POTTSTOWN      MOCLDY    69  62  78 CALM      30.07S
BLUE BELL      CLEAR     64  63  94 CALM      30.06S
DOYLESTOWN     CLOUDY    65  61  87 CALM      30.06S
WILLOW GROVE   NOT AVBL
NORTH PHILA    CLEAR     70  62  76 SE3       30.07F
PHILADELPHIA   PTCLDY    70  62  76 S5        30.06F
$$



USA.gov is the U.S. government's official web portal to all federal, state and local government web resources and services.